Location: Churchill Northern Studies Centre
(58.7378°N, 93.8201°W)
Time: 22:15:52
(UTC-06:00)

Envisat - Pass Details

Date: 11 October 2017
Orbit: 764 x 766 km, 98.2° (Epoch: 16 December)

Event Time Altitude Azimuth Distance (km) Brightness Sun altitude
Exits shadow 22:51:12 - 240° (WSW) 2,744 6.0 -33.0°
Reaches altitude 10° 22:53:29 10° 261° (W) 2,311 5.8 -33.1°
Maximum altitude 22:55:13 12° 281° (WNW) 2,200 5.9 -33.3°
Drops below altitude 10° 22:56:59 10° 302° (WNW) 2,317 6.2 -33.4°
Sets 23:01:05 0° 334° (NNW) 3,251 7.3 -33.8°
